Retour au catalogue

FENGYUN 1C DEB

ActifSSO
NORAD 37432·DEBRIS·🇨🇳 China

Lancé May 10, 1999 depuis Taiyuan Satellite Launch Center

Loading…

Prochains Passages (prochaines 24 heures)

TLE

VieillissantSource: Space-Track

Époque: Sep 5, 2026, 18:34 UTC

1 37432U 99025EHA 26248.77413712  .00001118  00000-0  21868-3 0  9997
2 37432  98.1770 261.3170 0178484 180.9331 179.1560 14.55214907122585

Suivez FENGYUN 1C DEB en temps réel avec AllMySat

Download on the App Store